Paris Le Bourget, France

9:18 PM CEST on April 25, 2017 (GMT +0200)
Le Bourget

Weather History for LFPB - December, 2012

Change the Weather History Date:

Thursday, December 27, 2012

  Actual Average Record
Temperature  
Mean Temperature 48 °F -  
Max Temperature 51 °F 43 °F 56 °F (2013)
Min Temperature 46 °F 34 °F 19 °F (1996)
Degree Days  
Heating Degree Days 16    
Moisture  
Dew Point 43 °F    
Average Humidity 79    
Maximum Humidity 94    
Minimum Humidity 66    
Precipitation  
Precipitation 0.00 in 0.07 in - ()
Sea Level Pressure  
Sea Level Pressure 29.83 in    
Wind  
Wind Speed 13 mph ()    
Max Wind Speed 25 mph    
Max Gust Speed 41 mph    
Visibility 6.1 miles    
Events Rain    
Averages and records for this station are not official NWS values.
T = Trace of Precipitation, MM = Missing Value Source: Averaged Metar Reports

Daily Weather History Graph

Daily Weather History Graph

Search for Another Location

Airport or City:

Trip Planner

Search our weather history database for the weather conditions in past years. The results will help you decide how hot, cold, wet, or windy it might be!

Date:

Astronomy

Dec. 27, 2012 Rise Set
Actual Time 8:43 AM CET 4:59 PM CET
Civil Twilight 8:06 AM CET 5:36 PM CET
Nautical Twilight 7:25 AM CET 6:17 PM CET
Astronomical Twilight 6:47 AM CET 6:55 PM CET
Moon 4:32 PM CET (12/27) 7:40 AM CET (12/27)
Length of Visible Light 9h 30m
Length of Day
8h 15m
Waxing Gibbous, 99% of the Moon is Illuminated
Dec 27
Waxing Gibbous
Dec 28
Full
Jan 5
Last Quarter
Jan 11
New
Jan 19
First Quarter

Hourly Weather History & Observations

Time (CET) Temp. Windchill Dew Point Humidity Pressure Visibility Wind Dir Wind Speed Gust Speed Precip Events Conditions
12:00 AM 51.8 °F - 48.2 °F 88% 29.83 in 5.6 mi SW 17.3 mph - N/A Rain Rain
12:30 AM 50.0 °F - 48.2 °F 94% 29.86 in 6.2 mi WSW 13.8 mph - N/A   Overcast
1:00 AM 50.0 °F - 44.6 °F 82% 29.86 in 6.2 mi WSW 13.8 mph - N/A   Unknown
1:30 AM 50.0 °F - 44.6 °F 82% 29.86 in 6.2 mi WSW 13.8 mph - N/A   Mostly Cloudy
2:00 AM 50.0 °F - 44.6 °F 82% 29.83 in 6.2 mi WSW 13.8 mph - N/A   Overcast
2:30 AM 51.8 °F - 44.6 °F 76% 29.83 in 6.2 mi WSW 9.2 mph - N/A   Overcast
3:00 AM 51.8 °F - 46.4 °F 82% 29.83 in 6.2 mi SW 10.4 mph - N/A   Overcast
3:30 AM 51.8 °F - 46.4 °F 82% 29.83 in 6.2 mi SW 6.9 mph - N/A   Mostly Cloudy
4:00 AM 51.8 °F - 46.4 °F 82% 29.83 in 6.2 mi SW 12.7 mph - N/A   Overcast
4:30 AM 50.0 °F - 44.6 °F 82% 29.80 in 6.2 mi SW 10.4 mph - N/A   Mostly Cloudy
5:00 AM 51.8 °F - 46.4 °F 82% 29.80 in 6.2 mi SSW 13.8 mph - N/A   Mostly Cloudy
5:30 AM 50.0 °F - 44.6 °F 82% 29.80 in 6.2 mi SW 11.5 mph - N/A Rain Rain
6:00 AM 50.0 °F - 46.4 °F 87% 29.77 in 6.2 mi SSW 11.5 mph - N/A   Mostly Cloudy
6:30 AM 50.0 °F - 46.4 °F 87% 29.77 in 6.2 mi SW 11.5 mph - N/A   Mostly Cloudy
7:00 AM 50.0 °F - 48.2 °F 94% 29.74 in 6.2 mi SW 8.1 mph - N/A   Overcast
7:30 AM 50.0 °F - 48.2 °F 94% 29.74 in 6.2 mi SSW 10.4 mph - N/A   Mostly Cloudy
8:00 AM 51.8 °F - 48.2 °F 88% 29.71 in 6.2 mi SW 13.8 mph - N/A   Overcast
8:30 AM 50.0 °F - 46.4 °F 87% 29.71 in 6.2 mi SW 10.4 mph - N/A   Mostly Cloudy
9:00 AM 50.0 °F - 44.6 °F 82% 29.71 in 6.2 mi SW 11.5 mph - N/A   Unknown
9:30 AM 50.0 °F - 44.6 °F 82% 29.71 in 6.2 mi SW 12.7 mph - N/A   Mostly Cloudy
10:00 AM 50.0 °F - 44.6 °F 82% 29.71 in 6.2 mi WSW 16.1 mph - N/A   Overcast
10:30 AM 51.8 °F - 44.6 °F 76% 29.71 in 6.2 mi WSW 18.4 mph - N/A   Mostly Cloudy
11:00 AM 51.8 °F - 44.6 °F 76% 29.71 in 6.2 mi WSW 18.4 mph - N/A   Partly Cloudy
11:30 AM 51.8 °F - 44.6 °F 76% 29.71 in 6.2 mi WSW 16.1 mph 28.8 mph N/A   Mostly Cloudy
12:00 PM 51.8 °F - 46.4 °F 82% 29.68 in 6.2 mi SW 16.1 mph - N/A Rain Light Rain
12:30 PM 50.0 °F - 46.4 °F 87% 29.68 in 4.3 mi SW 17.3 mph 36.8 mph N/A Rain Rain
1:00 PM 50.0 °F - 41.0 °F 71% 29.71 in 6.2 mi West 19.6 mph 33.4 mph N/A   Overcast
1:30 PM 50.0 °F - 41.0 °F 71% 29.71 in 6.2 mi West 18.4 mph - N/A   Mostly Cloudy
2:00 PM 50.0 °F - 41.0 °F 71% 29.71 in 6.2 mi West 16.1 mph 32.2 mph N/A   Overcast
2:30 PM 50.0 °F - 41.0 °F 71% 29.74 in 6.2 mi West 25.3 mph 40.3 mph N/A   Mostly Cloudy
3:00 PM 50.0 °F - 41.0 °F 71% 29.74 in 6.2 mi WSW 19.6 mph 34.5 mph N/A   Mostly Cloudy
3:30 PM 50.0 °F - 41.0 °F 71% 29.74 in 6.2 mi WSW 17.3 mph - N/A   Mostly Cloudy
4:00 PM 48.2 °F - 42.8 °F 82% 29.74 in 6.2 mi West 16.1 mph 27.6 mph N/A Rain Light Rain
4:30 PM 48.2 °F - 42.8 °F 82% 29.77 in 6.2 mi West 16.1 mph 27.6 mph N/A   Overcast
5:00 PM 50.0 °F - 42.8 °F 76% 29.80 in 6.2 mi West 17.3 mph - N/A   Mostly Cloudy
5:30 PM 50.0 °F - 42.8 °F 76% 29.80 in 6.2 mi WSW 17.3 mph - N/A   Overcast
6:00 PM 50.0 °F - 39.2 °F 66% 29.86 in 6.2 mi West 25.3 mph 41.4 mph N/A   Overcast
6:30 PM 50.0 °F - 39.2 °F 66% 29.89 in 6.2 mi WNW 20.7 mph 40.3 mph N/A   Overcast
7:00 PM 48.2 °F - 37.4 °F 66% 29.95 in 6.2 mi WNW 18.4 mph 33.4 mph N/A   Mostly Cloudy
7:30 PM 48.2 °F - 37.4 °F 66% 29.98 in 6.2 mi WNW 18.4 mph 29.9 mph N/A   Mostly Cloudy
8:00 PM 46.4 °F 40.4 °F 37.4 °F 71% 30.01 in 6.2 mi WNW 13.8 mph - N/A   Partly Cloudy
8:30 PM 46.4 °F 40.7 °F 37.4 °F 71% 30.04 in 6.2 mi West 12.7 mph - N/A   Mostly Cloudy
9:00 PM 48.2 °F - 39.2 °F 71% 30.06 in 6.2 mi West 12.7 mph - N/A   Overcast
9:30 PM 46.4 °F 42.4 °F 39.2 °F 76% 30.06 in 6.2 mi West 8.1 mph - N/A   Overcast
10:00 PM 46.4 °F 42.4 °F 39.2 °F 76% 30.09 in 6.2 mi West 8.1 mph - N/A   Mostly Cloudy
10:30 PM 46.4 °F 41.9 °F 39.2 °F 76% 30.12 in 6.2 mi West 9.2 mph - N/A   Mostly Cloudy
11:00 PM 46.4 °F 42.9 °F 39.2 °F 76% 30.15 in 6.2 mi WSW 6.9 mph - N/A   Mostly Cloudy
11:30 PM 46.4 °F 41.1 °F 39.2 °F 76% 30.15 in 6.2 mi WSW 11.5 mph - N/A   Mostly Cloudy